TimeEST,TemperatureF,Dew PointF,Humidity,Sea Level PressureIn,VisibilityMPH,Wind Direction,Wind SpeedMPH,Gust SpeedMPH,PrecipitationIn,Events,Conditions,WindDirDegrees,DateUTC
12:56 AM,26.1,19.0,75,30.35,10.0,Calm,Calm,-,N/A,,Overcast,0,2012-12-06 05:56:00
1:25 AM,24.8,17.6,74,30.28,10.0,NNW,3.5,-,N/A,,Scattered Clouds,330,2012-12-06 06:25:00
1:47 AM,24.8,17.6,74,30.29,10.0,NW,3.5,-,N/A,,Mostly Cloudy,310,2012-12-06 06:47:00
1:56 AM,25.0,18.0,75,30.35,10.0,NW,3.5,-,N/A,,Mostly Cloudy,320,2012-12-06 06:56:00
2:15 AM,24.8,17.6,74,30.29,10.0,NW,4.6,-,N/A,,Scattered Clouds,310,2012-12-06 07:15:00
2:40 AM,24.8,17.6,74,30.29,10.0,North,4.6,-,N/A,,Mostly Cloudy,350,2012-12-06 07:40:00
2:49 AM,23.0,17.6,80,30.27,10.0,NNE,11.5,-,N/A,,Partly Cloudy,30,2012-12-06 07:49:00
2:56 AM,23.0,17.1,78,30.34,10.0,NNE,8.1,-,N/A,,Partly Cloudy,30,2012-12-06 07:56:00
3:56 AM,21.9,16.0,78,30.32,10.0,ENE,8.1,-,N/A,,Clear,60,2012-12-06 08:56:00
4:56 AM,19.9,16.0,85,30.34,10.0,Calm,Calm,-,N/A,,Clear,0,2012-12-06 09:56:00
5:56 AM,21.0,17.1,85,30.34,10.0,East,3.5,-,N/A,,Clear,100,2012-12-06 10:56:00
6:56 AM,19.0,16.0,88,30.33,10.0,East,5.8,-,N/A,,Clear,80,2012-12-06 11:56:00
7:56 AM,21.0,17.1,85,30.34,10.0,East,3.5,-,N/A,,Clear,100,2012-12-06 12:56:00
8:56 AM,23.0,18.0,81,30.34,10.0,ESE,8.1,-,N/A,,Clear,110,2012-12-06 13:56:00
9:56 AM,26.1,19.0,75,30.31,10.0,ESE,8.1,-,N/A,,Clear,110,2012-12-06 14:56:00
10:56 AM,30.0,19.0,64,30.29,10.0,ESE,9.2,-,N/A,,Clear,120,2012-12-06 15:56:00
11:56 AM,34.0,19.9,56,30.25,10.0,ESE,6.9,-,N/A,,Clear,110,2012-12-06 16:56:00
12:56 PM,37.0,17.1,44,30.21,10.0,ESE,11.5,-,N/A,,Clear,120,2012-12-06 17:56:00
1:56 PM,37.0,17.1,44,30.19,10.0,ESE,9.2,-,N/A,,Clear,120,2012-12-06 18:56:00
2:56 PM,37.9,16.0,41,30.17,10.0,ESE,9.2,-,N/A,,Clear,120,2012-12-06 19:56:00
3:56 PM,37.9,16.0,41,30.17,10.0,ESE,9.2,-,N/A,,Clear,120,2012-12-06 20:56:00
4:56 PM,36.0,16.0,44,30.16,10.0,ESE,11.5,-,N/A,,Clear,120,2012-12-06 21:56:00
5:56 PM,34.0,17.1,50,30.15,10.0,ESE,12.7,-,N/A,,Clear,120,2012-12-06 22:56:00
6:56 PM,34.0,18.0,52,30.15,10.0,SE,11.5,-,N/A,,Clear,130,2012-12-06 23:56:00
7:56 PM,33.1,19.0,56,30.14,10.0,SE,11.5,-,N/A,,Clear,130,2012-12-07 00:56:00
8:56 PM,33.1,19.0,56,30.14,10.0,SE,12.7,-,N/A,,Clear,130,2012-12-07 01:56:00
9:56 PM,32.0,19.0,59,30.12,10.0,SE,12.7,-,N/A,,Clear,130,2012-12-07 02:56:00
10:56 PM,32.0,19.9,61,30.10,10.0,ESE,10.4,-,N/A,,Unknown,120,2012-12-07 03:56:00
11:51 PM,33.8,21.2,60,30.04,10.0,ESE,9.2,-,N/A,,Mostly Cloudy,120,2012-12-07 04:51:00
11:56 PM,33.1,21.0,61,30.08,10.0,SE,9.2,-,N/A,,Scattered Clouds,130,2012-12-07 04:56:00